DW3929 Weather Reports


Display with metric or nautical units.
time (UTC)temp
F
wind
direction
speed
MPH
gust
MPH
rain 1hr
in
rain 24hr
in
rain mn
in
humidity
%
barometer
mb
20260508113815 64 360 0.0 4.0 0.00 0.01 0.00 89 1013.9
20260508113336 63 360 1.0 4.0 0.00 0.01 0.00 89 1013.8
20260508112836 63 360 0.0 3.0 0.00 0.01 0.00 89 1014.0
20260508112313 63 360 0.0 3.0 0.00 0.01 0.00 89 1013.8
20260508111813 63 360 0.0 3.0 0.00 0.01 0.00 89 1013.6
20260508111315 63 360 1.0 3.0 0.00 0.01 0.00 89 1013.6
20260508110836 63 360 1.0 3.0 0.00 0.01 0.00 89 1013.6
20260508110315 63 360 0.0 2.0 0.00 0.01 0.00 89 1013.5
20260508105817 63 360 1.0 3.0 0.00 0.01 0.00 90 1013.5
20260508105337 63 360 0.0 3.0 0.00 0.01 0.00 90 1013.5
20260508104816 63 360 1.0 5.0 0.00 0.01 0.00 90 1013.7
20260508104331 63 360 0.0 5.0 0.00 0.01 0.00 90 1013.5
20260508103830 63 360 1.0 2.0 0.00 0.01 0.00 90 1013.5
20260508103319 63 360 0.0 2.0 0.00 0.01 0.00 90 1013.5
20260508102818 63 360 0.0 2.0 0.00 0.01 0.00 90 1013.5
20260508102319 63 360 1.0 3.0 0.00 0.01 0.00 90 1013.4
20260508101830 63 360 1.0 3.0 0.00 0.01 0.00 90 1013.3
20260508101331 63 360 0.0 1.0 0.00 0.01 0.00 90 1013.3
20260508100831 63 360 0.0 2.0 0.00 0.01 0.00 90 1013.4
20260508100352 63 360 0.0 3.0 0.00 0.01 0.00 90 1013.4
20260508095832 63 360 1.0 3.0 0.00 0.01 0.00 90 1013.3
20260508095332 63 360 1.0 3.0 0.00 0.01 0.00 90 1013.3
20260508094831 63 360 1.0 3.0 0.00 0.01 0.00 90 1013.1
20260508094331 63 360 2.0 3.0 0.00 0.01 0.00 90 1013.3
20260508093831 63 360 1.0 3.0 0.00 0.01 0.00 90 1013.8
20260508093353 63 360 1.0 4.0 0.00 0.01 0.00 90 1013.7
20260508092814 63 360 1.0 4.0 0.00 0.01 0.00 90 1013.7
20260508092335 63 360 1.0 3.0 0.00 0.01 0.00 90 1013.4
20260508091813 63 360 0.0 4.0 0.00 0.01 0.00 91 1013.2
20260508091331 63 360 2.0 4.0 0.00 0.01 0.00 90 1013.5
20260508090815 63 360 1.0 3.0 0.00 0.01 0.00 90 1013.4
20260508090331 63 360 2.0 3.0 0.00 0.01 0.00 90 1013.3
20260508085832 63 360 1.0 2.0 0.00 0.01 0.00 90 1012.9
20260508085325 63 360 1.0 2.0 0.00 0.01 0.00 90 1013.0
20260508084813 63 360 1.0 1.0 0.00 0.01 0.00 90 1013.0
20260508084350 63 360 1.0 1.0 0.00 0.01 0.00 90 1013.3
20260508083849 63 360 0.0 2.0 0.00 0.01 0.00 89 1013.6
20260508083330 64 360 1.0 1.0 0.00 0.01 0.00 88 1013.6
20260508082830 64 360 0.0 1.0 0.00 0.01 0.00 87 1013.4
20260508082319 64 360 0.0 3.0 0.00 0.01 0.00 86 1013.4
20260508081816 64 360 1.0 3.0 0.00 0.01 0.00 86 1013.3
20260508081314 64 360 1.0 2.0 0.00 0.01 0.00 86 1013.3
20260508080831 64 360 1.0 4.0 0.00 0.01 0.00 85 1013.4
20260508080320 64 360 1.0 4.0 0.00 0.01 0.00 84 1013.4
20260508075839 64 360 0.0 2.0 0.00 0.01 0.00 84 1013.4
20260508075316 64 360 1.0 2.0 0.00 0.01 0.00 84 1013.4
20260508074838 64 360 1.0 2.0 0.00 0.01 0.00 84 1013.5
20260508074316 64 360 1.0 3.0 0.00 0.01 0.00 84 1013.6
20260508073818 64 360 2.0 3.0 0.00 0.01 0.00 84 1013.6
20260508073319 64 360 0.0 4.0 0.00 0.01 0.00 83 1013.6
20260508072838 64 360 1.0 4.0 0.00 0.01 0.00 83 1013.5
20260508072317 64 360 1.0 5.0 0.00 0.01 0.00 83 1013.5
20260508071817 64 360 2.0 6.0 0.00 0.01 0.00 83 1013.5
20260508071317 64 360 1.0 6.0 0.00 0.01 0.00 84 1013.6
20260508070836 64 360 1.0 4.0 0.00 0.01 0.00 84 1013.5
20260508070316 64 360 1.0 4.0 0.00 0.01 0.00 84 1013.5
20260508065817 64 360 2.0 5.0 0.00 0.01 0.00 84 1013.8
20260508065316 64 360 0.0 4.0 0.00 0.01 0.00 84 1013.9
20260508064837 64 360 1.0 4.0 0.00 0.01 0.00 84 1014.1
20260508064337 64 360 1.0 4.0 0.00 0.01 0.00 84 1014.0
20260508063832 64 360 0.0 3.0 0.00 0.01 0.00 85 1014.1
20260508063352 64 360 1.0 4.0 0.00 0.01 0.00 84 1014.4
20260508062831 64 360 1.0 4.0 0.00 0.01 0.00 85 1014.4
20260508062329 64 360 0.0 2.0 0.00 0.01 0.00 85 1014.5
20260508061829 64 360 0.0 4.0 0.00 0.01 0.00 85 1014.6
20260508061330 64 360 1.0 3.0 0.00 0.01 0.00 85 1014.7
20260508060832 64 360 1.0 6.0 0.00 0.01 0.00 86 1014.9
20260508060329 64 360 1.0 6.0 0.00 0.01 0.00 85 1015.0
20260508055828 63 360 2.0 5.0 0.00 0.01 0.00 86 1014.8
20260508055329 63 360 1.0 6.0 0.00 0.01 0.00 86 1014.7
20260508054830 63 360 2.0 6.0 0.00 0.01 0.00 86 1014.7
20260508054330 63 360 2.0 4.0 0.00 0.01 0.00 86 1014.4
20260508053850 63 360 1.0 4.0 0.00 0.01 0.00 86 1014.2
20260508053328 63 360 1.0 3.0 0.00 0.01 0.00 85 1014.1
20260508052845 63 360 0.0 4.0 0.00 0.01 0.00 85 1014.2
20260508052323 63 360 2.0 9.0 0.00 0.01 0.00 86 1014.0
20260508051824 63 360 1.0 9.0 0.00 0.01 0.00 86 1014.1
20260508051345 63 360 2.0 4.0 0.00 0.01 0.00 85 1014.2
20260508050822 63 360 2.0 4.0 0.00 0.01 0.00 85 1013.9
20260508050320 63 360 1.0 3.0 0.00 0.01 0.00 85 1013.5
20260508045818 63 360 2.0 3.0 0.00 0.01 0.01 85 1013.3
20260508045338 63 360 1.0 3.0 0.00 0.01 0.01 85 1013.5
20260508044817 63 360 0.0 4.0 0.00 0.01 0.01 85 1013.8
20260508044319 63 360 2.0 4.0 0.00 0.01 0.01 84 1013.8
20260508043819 63 360 1.0 3.0 0.00 0.01 0.01 84 1013.9
20260508043318 63 360 1.0 3.0 0.00 0.01 0.01 84 1013.9
20260508042838 63 360 1.0 4.0 0.00 0.01 0.01 85 1014.2
20260508042316 63 360 0.0 4.0 0.00 0.01 0.01 85 1014.2
20260508041837 63 360 0.0 5.0 0.00 0.01 0.01 84 1014.6
20260508041336 63 360 2.0 5.0 0.00 0.01 0.01 84 1014.8
20260508040815 63 360 1.0 4.0 0.00 0.01 0.01 85 1014.8
20260508040335 63 360 1.0 3.0 0.00 0.01 0.01 85 1014.8
20260508035814 64 360 1.0 3.0 0.00 0.01 0.01 85 1014.8
20260508035314 63 360 1.0 3.0 0.00 0.01 0.01 85 1015.1
20260508034814 63 360 1.0 3.0 0.00 0.01 0.01 85 1015.3
20260508034314 63 360 1.0 3.0 0.00 0.01 0.01 85 1015.4
20260508033836 63 360 1.0 3.0 0.00 0.01 0.01 84 1015.4
20260508033315 64 360 0.0 1.0 0.00 0.01 0.01 84 1015.3
20260508032814 64 360 0.0 2.0 0.00 0.01 0.01 83 1015.0
20260508032315 64 360 0.0 2.0 0.00 0.01 0.01 83 1014.8
20260508031814 64 360 0.0 3.0 0.00 0.01 0.01 83 1014.4
20260508031315 64 360 0.0 3.0 0.00 0.01 0.01 82 1014.3
20260508030834 64 360 1.0 2.0 0.00 0.01 0.01 82 1014.3
20260508030313 64 360 0.0 4.0 0.00 0.01 0.01 82 1014.1
20260508025813 64 360 1.0 4.0 0.00 0.01 0.01 81 1014.0
20260508025313 64 360 0.0 3.0 0.00 0.01 0.01 81 1013.9
20260508024831 64 360 1.0 8.0 0.00 0.01 0.01 81 1013.8
20260508024313 64 360 3.0 8.0 0.00 0.01 0.01 81 1013.5
20260508023833 64 360 2.0 6.0 0.00 0.01 0.01 81 1013.4
20260508023341 64 360 2.0 6.0 0.00 0.01 0.01 81 1013.4
20260508022820 64 360 1.0 5.0 0.00 0.01 0.01 81 1013.2
20260508022320 65 360 2.0 5.0 0.00 0.01 0.01 81 1013.2
20260508021813 65 360 1.0 6.0 0.00 0.01 0.01 81 1013.3
20260508021332 65 360 3.0 6.0 0.00 0.01 0.01 81 1013.3
20260508020832 65 360 2.0 6.0 0.00 0.01 0.01 81 1013.3
20260508020313 65 360 1.0 6.0 0.00 0.01 0.01 80 1013.6
20260508015814 65 360 2.0 6.0 0.00 0.01 0.01 80 1013.7
20260508015334 65 360 2.0 6.0 0.00 0.01 0.01 80 1014.1
20260508014814 65 360 1.0 6.0 0.00 0.01 0.01 79 1013.8
20260508014330 65 360 3.0 6.0 0.00 0.01 0.01 80 1013.8
20260508013832 65 360 3.0 6.0 0.00 0.01 0.01 79 1013.3
20260508013331 65 360 2.0 8.0 0.00 0.01 0.01 79 1012.4
20260508012832 65 360 3.0 8.0 0.00 0.01 0.01 79 1012.1
20260508012331 66 360 2.0 8.0 0.00 0.01 0.01 79 1012.2
20260508011831 66 360 2.0 4.0 0.00 0.01 0.01 79 1012.6
20260508011330 66 360 1.0 6.0 0.00 0.01 0.01 78 1012.9
20260508010830 66 360 3.0 5.0 0.00 0.01 0.01 78 1013.1
20260508010323 66 360 1.0 5.0 0.00 0.01 0.01 77 1013.2
20260508005815 67 360 2.0 5.0 0.00 0.01 0.01 77 1013.3
20260508005314 67 360 1.0 3.0 0.00 0.01 0.01 77 1013.6
20260508004816 67 360 2.0 5.0 0.00 0.01 0.01 76 1013.7
20260508004315 67 360 2.0 8.0 0.00 0.01 0.01 76 1013.9
20260508003837 67 360 1.0 4.0 0.00 0.01 0.01 76 1014.0
20260508003315 68 360 1.0 5.0 0.00 0.01 0.01 75 1014.1
20260508002815 68 360 2.0 9.0 0.00 0.01 0.01 75 1014.3
20260508002335 68 360 2.0 9.0 0.00 0.01 0.01 74 1014.2
20260508001815 68 360 2.0 9.0 0.00 0.01 0.01 74 1014.4
20260508001313 69 360 2.0 5.0 0.00 0.01 0.01 74 1014.5
20260508000813 69 360 2.0 6.0 0.00 0.01 0.01 74 1014.6
20260508000331 68 360 3.0 8.0 0.00 0.01 0.01 73 1014.6
20260507235831 68 360 3.0 12.0 0.00 0.01 0.01 74 1014.4
20260507235324 69 360 2.0 12.0 0.00 0.01 0.01 73 1014.4
20260507234815 69 360 3.0 12.0 0.00 0.01 0.01 73 1014.2
20260507234315 69 360 4.0 11.0 0.00 0.01 0.01 73 1014.1
20260507233817 69 360 3.0 10.0 0.00 0.01 0.01 72 1014.2
20260507233318 69 360 2.0 8.0 0.00 0.01 0.01 72 1014.5
20260507232818 70 360 3.0 8.0 0.00 0.01 0.01 72 1014.6
20260507232318 70 360 3.0 9.0 0.00 0.01 0.01 71 1014.6
20260507231819 70 360 3.0 12.0 0.00 0.01 0.01 71 1014.6
20260507231318 70 360 5.0 12.0 0.00 0.01 0.01 71 1014.6
20260507230820 70 360 5.0 11.0 0.00 0.01 0.01 71 1014.4
20260507230320 70 360 5.0 11.0 0.00 0.01 0.01 72 1014.3
20260507225821 69 360 3.0 10.0 0.00 0.01 0.01 74 1014.7
20260507225319 69 360 4.0 10.0 0.00 0.01 0.01 74 1014.9
20260507224818 70 360 2.0 11.0 0.00 0.01 0.01 72 1015.0
20260507224319 70 360 4.0 10.0 0.00 0.01 0.01 71 1014.9
20260507223818 70 360 3.0 10.0 0.00 0.01 0.01 74 1015.1
20260507223319 70 360 3.0 9.0 0.00 0.01 0.01 73 1015.1
20260507222815 71 360 2.0 10.0 0.00 0.01 0.01 71 1015.1
20260507222335 71 360 3.0 12.0 0.00 0.01 0.01 73 1015.1
20260507221814 71 360 4.0 9.0 0.00 0.01 0.01 73 1015.1
20260507221313 71 360 4.0 12.0 0.00 0.01 0.01 73 1014.9
20260507220831 71 360 3.0 12.0 0.00 0.01 0.01 75 1014.9
20260507220325 70 360 4.0 11.0 0.00 0.01 0.01 75 1015.0
20260507215816 69 360 4.0 12.0 0.00 0.01 0.01 75 1014.9
20260507215316 69 360 5.0 12.0 0.00 0.01 0.01 75 1014.6
20260507214832 69 360 5.0 11.0 0.00 0.01 0.01 75 1014.6
20260507214344 68 360 4.0 10.0 0.00 0.01 0.01 76 1014.7
20260507213823 68 360 3.0 9.0 0.00 0.01 0.01 77 1015.0
20260507213324 68 360 4.0 9.0 0.00 0.01 0.01 77 1015.0
20260507212824 67 360 3.0 10.0 0.00 0.01 0.01 78 1015.1
20260507212325 67 360 5.0 14.0 0.00 0.01 0.01 79 1015.2
20260507211826 66 360 4.0 13.0 0.00 0.01 0.01 78 1015.1
20260507211326 66 360 4.0 13.0 0.00 0.01 0.01 80 1015.1
20260507210825 66 360 4.0 10.0 0.00 0.01 0.01 80 1015.0
20260507210327 66 360 4.0 10.0 0.00 0.01 0.01 81 1015.1
20260507205826 66 360 4.0 11.0 0.00 0.01 0.01 80 1014.7
20260507205326 66 360 4.0 13.0 0.00 0.01 0.01 81 1014.7
20260507204825 66 360 5.0 13.0 0.00 0.01 0.01 82 1014.7
20260507204323 66 360 5.0 14.0 0.00 0.01 0.01 82 1014.9
20260507203823 66 360 5.0 16.0 0.00 0.01 0.01 81 1015.4
20260507203344 66 360 2.0 10.0 0.00 0.01 0.01 80 1015.2
20260507202824 66 360 4.0 10.0 0.00 0.01 0.01 83 1014.8
20260507202324 66 360 2.0 9.0 0.01 0.01 0.01 82 1015.2
20260507201824 66 360 4.0 9.0 0.01 0.01 0.01 81 1015.4
20260507201343 66 360 2.0 10.0 0.01 0.01 0.01 81 1015.5
20260507200843 66 360 3.0 12.0 0.01 0.01 0.01 82 1015.5
20260507200320 66 360 3.0 11.0 0.01 0.01 0.01 82 1015.4
20260507195821 66 360 1.0 10.0 0.01 0.01 0.01 84 1015.1
20260507195320 66 360 2.0 10.0 0.01 0.01 0.01 84 1015.0
20260507194821 66 360 4.0 10.0 0.01 0.01 0.01 85 1014.8
20260507194339 67 360 2.0 10.0 0.01 0.01 0.01 84 1014.8
20260507193839 67 360 4.0 9.0 0.01 0.01 0.01 85 1014.7
20260507193317 68 360 2.0 8.0 0.01 0.01 0.01 82 1015.5
20260507192816 68 360 2.0 8.0 0.01 0.01 0.01 80 1015.8
20260507192336 69 360 3.0 9.0 0.00 0.00 0.00 77 1016.2
20260507191815 69 360 3.0 9.0 0.00 0.00 0.00 76 1016.3
20260507191313 69 360 4.0 9.0 0.00 0.00 0.00 76 1016.2
20260507190830 69 360 4.0 11.0 0.00 0.00 0.00 77 1016.1
20260507190327 68 360 2.0 9.0 0.00 0.00 0.00 78 1016.1
20260507185826 68 360 3.0 8.0 0.00 0.00 0.00 77 1016.4
20260507185323 68 360 3.0 8.0 0.00 0.00 0.00 77 1016.4
20260507184845 68 360 2.0 6.0 0.00 0.00 0.00 76 1016.4
20260507184324 68 360 3.0 11.0 0.00 0.00 0.00 77 1016.5
20260507183812 68 360 4.0 11.0 0.00 0.00 0.00 76 1016.4
20260507183350 68 360 4.0 10.0 0.00 0.00 0.00 77 1016.3
20260507182830 67 360 5.0 10.0 0.00 0.00 0.00 78 1016.2
20260507182330 67 360 3.0 11.0 0.00 0.00 0.00 77 1016.2
20260507181831 67 360 3.0 11.0 0.00 0.00 0.00 78 1016.4
20260507181331 67 360 3.0 11.0 0.00 0.00 0.00 78 1016.3
20260507180831 67 360 4.0 12.0 0.00 0.00 0.00 77 1016.3
20260507180345 66 360 5.0 12.0 0.00 0.00 0.00 78 1016.2
20260507175824 66 360 4.0 12.0 0.00 0.00 0.00 78 1016.1
20260507175323 66 360 4.0 12.0 0.00 0.00 0.00 79 1016.3
20260507174823 65 360 5.0 12.0 0.00 0.00 0.00 79 1016.5
20260507174321 65 360 7.0 12.0 0.00 0.00 0.00 79 1016.5
20260507173820 65 360 3.0 13.0 0.00 0.00 0.00 80 1016.6
20260507173317 65 360 3.0 13.0 0.00 0.00 0.00 82 1016.8
20260507172816 64 360 4.0 9.0 0.00 0.00 0.00 82 1017.1
20260507172316 64 360 4.0 10.0 0.00 0.00 0.00 82 1017.2
20260507171815 64 360 3.0 13.0 0.00 0.00 0.00 81 1017.4
20260507171315 64 360 6.0 13.0 0.00 0.00 0.00 82 1017.4
20260507170813 64 360 6.0 12.0 0.00 0.00 0.00 81 1017.5
20260507170313 64 360 5.0 12.0 0.00 0.00 0.00 83 1017.6
20260507165832 64 360 5.0 11.0 0.00 0.00 0.00 83 1017.6
20260507165332 64 360 5.0 14.0 0.00 0.00 0.00 82 1017.5
20260507164812 63 360 5.0 14.0 0.00 0.00 0.00 84 1017.5
20260507164312 63 360 5.0 15.0 0.00 0.00 0.00 84 1017.3
20260507163813 62 360 4.0 11.0 0.00 0.00 0.00 84 1017.6
20260507163331 62 360 4.0 11.0 0.00 0.00 0.00 84 1017.7
20260507162830 62 360 3.0 11.0 0.00 0.00 0.00 84 1017.3
20260507162330 62 360 4.0 11.0 0.00 0.00 0.00 84 1017.4
20260507161830 62 360 3.0 13.0 0.00 0.00 0.00 85 1017.4
20260507161350 62 360 5.0 16.0 0.00 0.00 0.00 84 1017.5
20260507160830 62 360 4.0 13.0 0.00 0.00 0.00 84 1017.5
20260507160330 62 360 5.0 17.0 0.00 0.00 0.00 84 1017.4
20260507155830 62 360 8.0 17.0 0.00 0.00 0.00 85 1017.5
20260507155330 63 360 7.0 17.0 0.00 0.00 0.00 86 1017.4
20260507154830 63 360 4.0 13.0 0.00 0.00 0.00 86 1017.5
20260507154327 63 360 4.0 15.0 0.00 0.00 0.00 87 1017.2
20260507153834 63 360 6.0 15.0 0.00 0.00 0.00 86 1017.3
20260507153350 63 360 4.0 14.0 0.00 0.00 0.00 86 1017.4
20260507152828 63 360 6.0 15.0 0.00 0.00 0.00 85 1017.4
20260507152329 63 360 5.0 13.0 0.00 0.00 0.00 85 1017.4
20260507151829 63 360 7.0 14.0 0.00 0.00 0.00 85 1017.2
20260507151328 63 360 5.0 18.0 0.00 0.00 0.00 86 1017.0
20260507150828 62 360 8.0 18.0 0.00 0.00 0.00 86 1017.0
20260507150350 62 360 8.0 15.0 0.00 0.00 0.00 86 1017.1
20260507145828 62 360 5.0 18.0 0.00 0.00 0.00 87 1017.2
20260507145327 62 360 5.0 15.0 0.00 0.00 0.00 87 1017.3
20260507144825 62 360 6.0 14.0 0.00 0.00 0.00 87 1017.3
20260507144346 62 360 5.0 13.0 0.00 0.00 0.00 87 1017.5
20260507143814 62 360 5.0 11.0 0.00 0.00 0.00 87 1017.7
20260507143330 62 360 4.0 11.0 0.00 0.00 0.00 87 1017.5
20260507142831 62 360 5.0 13.0 0.00 0.00 0.00 87 1017.3
20260507142331 62 360 2.0 13.0 0.00 0.00 0.00 87 1017.3
20260507141831 62 360 6.0 14.0 0.00 0.00 0.00 87 1017.1
20260507141312 62 360 6.0 14.0 0.00 0.00 0.00 88 1017.1
20260507140851 62 360 5.0 14.0 0.00 0.00 0.00 88 1017.0
20260507140348 62 360 3.0 14.0 0.00 0.00 0.00 89 1017.1
20260507135825 62 360 5.0 14.0 0.00 0.00 0.00 89 1016.8
20260507135324 62 360 4.0 18.0 0.00 0.00 0.00 89 1016.7
20260507134822 62 360 5.0 16.0 0.00 0.00 0.00 89 1016.6
20260507134321 62 360 4.0 10.0 0.00 0.00 0.00 89 1016.6
20260507133842 62 360 3.0 11.0 0.00 0.00 0.00 89 1016.7
20260507133321 61 360 3.0 11.0 0.00 0.00 0.00 89 1016.8
20260507132820 61 360 2.0 11.0 0.00 0.00 0.00 89 1016.8
20260507132333 61 360 2.0 14.0 0.00 0.00 0.00 89 1017.1
20260507131832 61 360 6.0 14.0 0.00 0.00 0.00 89 1017.1
20260507131312 61 360 4.0 14.0 0.00 0.00 0.00 89 1017.1
20260507130831 61 360 5.0 17.0 0.00 0.00 0.00 90 1017.0
20260507130350 61 360 6.0 17.0 0.00 0.00 0.00 90 1016.8
20260507125848 61 360 3.0 14.0 0.00 0.00 0.00 90 1016.8
20260507125328 61 360 7.0 14.0 0.00 0.00 0.00 90 1016.6
20260507124848 61 360 4.0 17.0 0.00 0.00 0.00 91 1016.6
20260507124324 61 360 5.0 17.0 0.00 0.00 0.00 91 1016.7
20260507123822 61 360 6.0 13.0 0.00 0.00 0.00 90 1016.6
20260507123314 61 360 4.0 10.0 0.00 0.00 0.00 90 1016.3
20260507122814 61 360 3.0 14.0 0.00 0.00 0.00 90 1016.2
20260507122329 61 360 5.0 17.0 0.00 0.00 0.00 90 1016.2
20260507121848 61 360 5.0 17.0 0.00 0.00 0.00 90 1016.2
20260507121327 61 360 6.0 14.0 0.00 0.00 0.00 90 1016.1
20260507120826 61 360 7.0 17.0 0.00 0.00 0.00 90 1016.1
20260507120326 61 360 6.0 15.0 0.00 0.00 0.00 90 1015.9
20260507115824 61 360 5.0 12.0 0.00 0.00 0.00 90 1015.8
20260507115324 61 360 4.0 12.0 0.00 0.00 0.00 91 1015.6
20260507114823 61 360 3.0 11.0 0.00 0.00 0.00 91 1015.8
20260507114322 61 360 4.0 17.0 0.00 0.00 0.00 91 1015.7